AAL2457 KIAD-KCLT

Flight info

Callsign AAL2457
Flight time 1h 8m
Altitude 36000
Route SCRAM6 GLANC AIROW CHSLY6
Aircraft A319/M-SDE3FGHIRWY/LB1

Departure

Time 2026-05-07 07:38
Airport Washington Dulles International Airport (KIAD)

Arrival

Time 2026-05-07 08:47
Airport Charlotte Douglas International Airport (KCLT)
Time Latitude Longitude Altitude Speed Heading
2026-05-07 07:13 38.94822 -77.45246 293 ft 0 kts 13°
2026-05-07 07:31 38.94806 -77.45251 295 ft 4 kts 18°
2026-05-07 07:32 38.94780 -77.45262 296 ft 4 kts 13°
2026-05-07 07:32 38.94768 -77.45265 297 ft 0 kts
2026-05-07 07:34 38.94771 -77.45270 292 ft 2 kts 320°
2026-05-07 07:34 38.94747 -77.45336 292 ft 14 kts 231°
2026-05-07 07:34 38.94733 -77.45470 292 ft 17 kts 268°
2026-05-07 07:34 38.94712 -77.45604 294 ft 14 kts 207°
2026-05-07 07:35 38.94634 -77.45607 292 ft 11 kts 178°
2026-05-07 07:35 38.94620 -77.45607 295 ft 0 kts 180°
2026-05-07 07:35 38.94618 -77.45607 295 ft 2 kts 180°
2026-05-07 07:36 38.94543 -77.45610 293 ft 20 kts 181°
2026-05-07 07:36 38.94367 -77.45612 292 ft 26 kts 180°
2026-05-07 07:36 38.94176 -77.45616 295 ft 29 kts 181°
2026-05-07 07:36 38.93971 -77.45616 294 ft 30 kts 179°
2026-05-07 07:37 38.93753 -77.45620 296 ft 30 kts 180°
2026-05-07 07:37 38.93639 -77.45517 292 ft 22 kts 130°
2026-05-07 07:37 38.93503 -77.45537 294 ft 22 kts 201°
2026-05-07 07:37 38.93386 -77.45628 296 ft 20 kts 261°
2026-05-07 07:38 38.93462 -77.45930 293 ft 61 kts 291°
2026-05-07 07:38 38.93684 -77.46676 301 ft 117 kts 290°
2026-05-07 07:38 38.94021 -77.47827 502 ft 143 kts 294°
2026-05-07 07:38 38.94359 -77.48964 1216 ft 136 kts 295°
2026-05-07 07:39 38.94699 -77.50105 1769 ft 138 kts 296°
2026-05-07 07:39 38.95036 -77.51296 2244 ft 151 kts 292°
2026-05-07 07:39 38.95108 -77.52780 2519 ft 183 kts 272°
2026-05-07 07:39 38.94730 -77.54438 2899 ft 215 kts 246°
2026-05-07 07:40 38.93691 -77.56028 3380 ft 248 kts 224°
2026-05-07 07:40 38.92318 -77.57497 4137 ft 261 kts 221°
2026-05-07 07:40 38.90914 -77.58956 5354 ft 256 kts 220°
2026-05-07 07:40 38.89540 -77.60372 6511 ft 253 kts 221°
2026-05-07 07:41 38.88167 -77.61787 7545 ft 252 kts 222°
2026-05-07 07:41 38.86804 -77.63197 8581 ft 252 kts 223°
2026-05-07 07:41 38.85438 -77.64615 9612 ft 252 kts 224°
2026-05-07 07:41 38.84101 -77.66008 10340 ft 261 kts 224°
2026-05-07 07:42 38.82618 -77.67566 10647 ft 284 kts 224°
2026-05-07 07:42 38.81058 -77.69195 11236 ft 293 kts 224°
2026-05-07 07:42 38.79454 -77.70857 11997 ft 297 kts 224°
2026-05-07 07:42 38.77852 -77.72513 12736 ft 301 kts 224°
2026-05-07 07:43 38.76209 -77.74211 13508 ft 305 kts 225°
2026-05-07 07:43 38.74550 -77.75924 14203 ft 308 kts 225°
2026-05-07 07:43 38.72876 -77.77648 14919 ft 309 kts 225°
2026-05-07 07:43 38.71195 -77.79378 15659 ft 310 kts 225°
2026-05-07 07:44 38.69508 -77.81118 16386 ft 310 kts 225°
2026-05-07 07:44 38.67825 -77.82857 17119 ft 311 kts 225°
2026-05-07 07:44 38.66135 -77.84603 17842 ft 313 kts 225°
2026-05-07 07:44 38.64434 -77.86358 18509 ft 315 kts 225°
2026-05-07 07:45 38.62748 -77.88095 19122 ft 316 kts 225°
2026-05-07 07:45 38.61028 -77.89867 19741 ft 318 kts 225°
2026-05-07 07:45 38.59300 -77.91647 20384 ft 319 kts 226°
2026-05-07 07:45 38.57569 -77.93427 21007 ft 320 kts 226°
2026-05-07 07:46 38.55832 -77.95210 21614 ft 322 kts 226°
2026-05-07 07:46 38.54078 -77.97010 22262 ft 323 kts 226°
2026-05-07 07:46 38.52322 -77.98814 22865 ft 324 kts 226°
2026-05-07 07:46 38.50553 -78.00633 23442 ft 326 kts 226°
2026-05-07 07:47 38.48795 -78.02436 23880 ft 328 kts 226°
2026-05-07 07:47 38.47009 -78.04263 24341 ft 330 kts 226°
2026-05-07 07:47 38.45212 -78.06099 24797 ft 331 kts 227°
2026-05-07 07:47 38.43412 -78.07938 25250 ft 332 kts 227°
2026-05-07 07:48 38.41607 -78.09784 25704 ft 333 kts 227°
2026-05-07 07:48 38.39788 -78.11646 26168 ft 334 kts 227°
2026-05-07 07:48 38.37967 -78.13508 26613 ft 336 kts 227°
2026-05-07 07:48 38.36140 -78.15370 27046 ft 338 kts 227°
2026-05-07 07:49 38.34299 -78.17241 27490 ft 339 kts 227°
2026-05-07 07:49 38.32448 -78.19122 27910 ft 341 kts 227°
2026-05-07 07:49 38.30588 -78.21013 28338 ft 342 kts 227°
2026-05-07 07:49 38.28744 -78.22892 28693 ft 344 kts 228°
2026-05-07 07:50 38.26859 -78.24814 29086 ft 347 kts 228°
2026-05-07 07:50 38.24974 -78.26738 29487 ft 349 kts 228°
2026-05-07 07:50 38.23072 -78.28675 29888 ft 350 kts 228°
2026-05-07 07:50 38.21160 -78.30617 30236 ft 352 kts 228°
2026-05-07 07:51 38.19244 -78.32556 30538 ft 353 kts 228°
2026-05-07 07:51 38.17312 -78.34509 30862 ft 355 kts 228°
2026-05-07 07:51 38.15381 -78.36462 31177 ft 356 kts 228°
2026-05-07 07:51 38.13436 -78.38426 31500 ft 357 kts 229°
2026-05-07 07:52 38.11491 -78.40391 31802 ft 358 kts 229°
2026-05-07 07:52 38.09542 -78.42360 32183 ft 357 kts 229°
2026-05-07 07:52 38.07624 -78.44293 32579 ft 355 kts 229°
2026-05-07 07:52 38.05688 -78.46242 33002 ft 354 kts 229°
2026-05-07 07:53 38.03763 -78.48176 33439 ft 352 kts 229°
2026-05-07 07:53 38.01850 -78.50098 33893 ft 350 kts 229°
2026-05-07 07:53 37.99947 -78.52015 34294 ft 348 kts 230°
2026-05-07 07:53 37.98061 -78.53915 34692 ft 346 kts 230°
2026-05-07 07:54 37.96173 -78.55810 35077 ft 344 kts 230°
2026-05-07 07:54 37.94303 -78.57685 35458 ft 342 kts 230°
2026-05-07 07:54 37.93049 -78.58940 35710 ft 341 kts 230°
2026-05-07 07:54 37.90584 -78.61414 35879 ft 338 kts 230°
2026-05-07 07:55 37.88750 -78.63253 35898 ft 335 kts 230°
2026-05-07 07:55 37.85112 -78.66911 35902 ft 333 kts 230°
2026-05-07 07:56 37.81485 -78.70550 35905 ft 332 kts 230°
2026-05-07 07:56 37.78456 -78.73576 35900 ft 331 kts 230°
2026-05-07 07:57 37.74839 -78.77181 35901 ft 331 kts 230°
2026-05-07 07:57 37.71249 -78.80742 35896 ft 331 kts 229°
2026-05-07 07:58 37.67543 -78.84239 35902 ft 333 kts 229°
2026-05-07 07:58 37.63796 -78.87701 35877 ft 336 kts 228°
2026-05-07 07:59 37.60019 -78.91211 35885 ft 337 kts 228°
2026-05-07 07:59 37.56252 -78.94719 35894 ft 336 kts 228°
2026-05-07 08:00 37.52487 -78.98229 35902 ft 336 kts 228°
2026-05-07 08:00 37.48726 -79.01726 35906 ft 336 kts 228°
2026-05-07 08:01 37.44991 -79.05194 35909 ft 335 kts 228°
2026-05-07 08:01 37.41199 -79.08638 35885 ft 337 kts 227°
2026-05-07 08:02 37.37331 -79.11995 35896 ft 338 kts 226°
2026-05-07 08:02 37.33451 -79.15353 35903 ft 338 kts 227°
2026-05-07 08:03 37.29588 -79.18712 35907 ft 338 kts 227°
2026-05-07 08:03 37.25713 -79.22090 35883 ft 338 kts 227°
2026-05-07 08:04 37.21862 -79.25480 35841 ft 338 kts 227°
2026-05-07 08:04 37.18025 -79.28962 35887 ft 341 kts 227°
2026-05-07 08:05 37.14213 -79.32427 35891 ft 341 kts 227°
2026-05-07 08:05 37.10358 -79.35898 35891 ft 341 kts 227°
2026-05-07 08:06 37.06500 -79.39370 35895 ft 341 kts 227°
2026-05-07 08:06 37.02633 -79.42838 35912 ft 341 kts 227°
2026-05-07 08:07 36.98737 -79.46248 35875 ft 343 kts 226°
2026-05-07 08:07 36.94771 -79.49578 35880 ft 344 kts 225°
2026-05-07 08:08 36.90793 -79.52905 35886 ft 344 kts 225°
2026-05-07 08:08 36.86820 -79.56244 35884 ft 344 kts 225°
2026-05-07 08:09 36.82841 -79.59586 35888 ft 344 kts 225°
2026-05-07 08:09 36.78858 -79.62931 35906 ft 344 kts 225°
2026-05-07 08:10 36.74878 -79.66274 35866 ft 345 kts 225°
2026-05-07 08:10 36.70886 -79.69616 35887 ft 347 kts 225°
2026-05-07 08:11 36.66863 -79.72979 35893 ft 349 kts 225°
2026-05-07 08:11 36.64864 -79.74654 35737 ft 354 kts 225°
2026-05-07 08:11 36.62795 -79.76398 35113 ft 361 kts 225°
2026-05-07 08:11 36.60721 -79.78135 34342 ft 358 kts 225°
2026-05-07 08:12 36.58642 -79.79861 33541 ft 355 kts 224°
2026-05-07 08:12 36.56591 -79.81557 32688 ft 350 kts 224°
2026-05-07 08:12 36.54597 -79.83204 31802 ft 348 kts 224°
2026-05-07 08:12 36.52576 -79.84879 30998 ft 348 kts 224°
2026-05-07 08:13 36.50570 -79.86549 30221 ft 346 kts 223°
2026-05-07 08:13 36.48575 -79.88212 29369 ft 347 kts 223°
2026-05-07 08:13 36.46547 -79.89907 28434 ft 354 kts 222°
2026-05-07 08:13 36.44503 -79.91608 27840 ft 352 kts 222°
2026-05-07 08:14 36.42467 -79.93292 27256 ft 350 kts 221°
2026-05-07 08:14 36.40445 -79.94961 26683 ft 349 kts 221°
2026-05-07 08:14 36.38432 -79.96623 26126 ft 347 kts 221°
2026-05-07 08:14 36.36424 -79.98283 25579 ft 346 kts 220°
2026-05-07 08:15 36.34418 -79.99942 25035 ft 345 kts 220°
2026-05-07 08:15 36.32418 -80.01595 24470 ft 345 kts 219°
2026-05-07 08:15 36.30403 -80.03259 23947 ft 346 kts 218°
2026-05-07 08:15 36.28422 -80.04893 23441 ft 347 kts 218°
2026-05-07 08:16 36.26411 -80.06554 22824 ft 347 kts 218°
2026-05-07 08:16 36.24402 -80.08213 22224 ft 347 kts 218°
2026-05-07 08:16 36.22390 -80.09871 21644 ft 347 kts 219°
2026-05-07 08:16 36.20383 -80.11521 21069 ft 346 kts 219°
2026-05-07 08:17 36.18383 -80.13169 20508 ft 345 kts 219°
2026-05-07 08:17 36.16386 -80.14813 19953 ft 343 kts 219°
2026-05-07 08:17 36.14403 -80.16438 19419 ft 341 kts 219°
2026-05-07 08:17 36.12425 -80.18057 18896 ft 339 kts 221°
2026-05-07 08:18 36.10465 -80.19662 18372 ft 336 kts 221°
2026-05-07 08:18 36.08524 -80.21256 17758 ft 333 kts 220°
2026-05-07 08:18 36.06601 -80.22837 17169 ft 332 kts 220°
2026-05-07 08:18 36.04684 -80.24407 16577 ft 326 kts 220°
2026-05-07 08:19 36.02818 -80.25923 16055 ft 317 kts 219°
2026-05-07 08:19 36.00989 -80.27413 15592 ft 314 kts 219°
2026-05-07 08:19 35.99174 -80.28898 15137 ft 311 kts 219°
2026-05-07 08:19 35.97404 -80.30351 14696 ft 308 kts 219°
2026-05-07 08:20 35.95603 -80.31824 14237 ft 305 kts 219°
2026-05-07 08:20 35.93862 -80.33247 13812 ft 303 kts 219°
2026-05-07 08:20 35.92083 -80.34698 13327 ft 301 kts 218°
2026-05-07 08:20 35.90345 -80.36115 13011 ft 295 kts 218°
2026-05-07 08:21 35.88671 -80.37476 12946 ft 283 kts 219°
2026-05-07 08:21 35.87055 -80.38793 12738 ft 278 kts 219°
2026-05-07 08:21 35.85453 -80.40098 12546 ft 275 kts 219°
2026-05-07 08:21 35.83865 -80.41391 12352 ft 273 kts 219°
2026-05-07 08:22 35.82281 -80.42681 12155 ft 272 kts 219°
2026-05-07 08:22 35.80696 -80.43950 11960 ft 272 kts 219°
2026-05-07 08:22 35.79112 -80.45204 11754 ft 270 kts 219°
2026-05-07 08:22 35.77530 -80.46451 11557 ft 269 kts 219°
2026-05-07 08:23 35.75978 -80.47675 11434 ft 269 kts 218°
2026-05-07 08:23 35.74403 -80.48918 11364 ft 268 kts 219°
2026-05-07 08:23 35.72835 -80.50154 11292 ft 267 kts 218°
2026-05-07 08:23 35.71267 -80.51389 11213 ft 268 kts 218°
2026-05-07 08:24 35.69696 -80.52629 11131 ft 267 kts 219°
2026-05-07 08:24 35.68131 -80.53860 11074 ft 267 kts 218°
2026-05-07 08:24 35.66555 -80.55068 11000 ft 267 kts 217°
2026-05-07 08:24 35.64972 -80.56265 10932 ft 267 kts 217°
2026-05-07 08:25 35.63386 -80.57462 10859 ft 267 kts 217°
2026-05-07 08:25 35.61805 -80.58658 10788 ft 267 kts 217°
2026-05-07 08:25 35.60225 -80.59853 10717 ft 266 kts 217°
2026-05-07 08:25 35.58652 -80.61042 10645 ft 265 kts 217°
2026-05-07 08:26 35.55518 -80.63407 10525 ft 265 kts 217°
2026-05-07 08:26 35.53950 -80.64592 10458 ft 265 kts 217°
2026-05-07 08:26 35.52378 -80.65770 10390 ft 265 kts 217°
2026-05-07 08:27 35.50804 -80.66946 10329 ft 264 kts 216°
2026-05-07 08:27 35.49238 -80.68116 10259 ft 264 kts 216°
2026-05-07 08:27 35.47668 -80.69285 10168 ft 264 kts 216°
2026-05-07 08:27 35.46092 -80.70459 10046 ft 264 kts 216°
2026-05-07 08:28 35.44527 -80.71625 9782 ft 263 kts 216°
2026-05-07 08:28 35.42966 -80.72783 9502 ft 262 kts 216°
2026-05-07 08:28 35.41413 -80.73938 9221 ft 261 kts 216°
2026-05-07 08:28 35.39856 -80.75096 8932 ft 260 kts 216°
2026-05-07 08:29 35.38320 -80.76237 8661 ft 257 kts 216°
2026-05-07 08:29 35.36800 -80.77365 8379 ft 254 kts 216°
2026-05-07 08:29 35.35314 -80.78464 8106 ft 251 kts 216°
2026-05-07 08:29 35.33809 -80.79578 7842 ft 248 kts 216°
2026-05-07 08:30 35.32344 -80.80662 7572 ft 244 kts 216°
2026-05-07 08:30 35.30924 -80.81716 7306 ft 240 kts 216°
2026-05-07 08:30 35.29490 -80.82779 7014 ft 236 kts 215°
2026-05-07 08:30 35.27966 -80.83535 6756 ft 240 kts 198°
2026-05-07 08:31 35.26293 -80.83590 6503 ft 247 kts 184°
2026-05-07 08:31 35.24586 -80.83442 6242 ft 244 kts 183°
2026-05-07 08:31 35.22907 -80.83289 5968 ft 240 kts 185°
2026-05-07 08:31 35.21258 -80.83146 5691 ft 237 kts 186°
2026-05-07 08:32 35.19619 -80.83006 5418 ft 234 kts 185°
2026-05-07 08:32 35.18013 -80.82873 5149 ft 230 kts 185°
2026-05-07 08:32 35.16430 -80.82740 4877 ft 226 kts 185°
2026-05-07 08:32 35.14872 -80.82614 4552 ft 222 kts 185°
2026-05-07 08:33 35.13343 -80.82490 4277 ft 219 kts 185°
2026-05-07 08:33 35.11833 -80.82363 4000 ft 215 kts 184°
2026-05-07 08:33 35.10397 -80.82237 3728 ft 203 kts 186°
2026-05-07 08:33 35.09007 -80.82113 3460 ft 193 kts 186°
2026-05-07 08:34 35.07699 -80.81998 3191 ft 186 kts 186°
2026-05-07 08:34 35.06485 -80.82129 3019 ft 169 kts 214°
2026-05-07 08:34 35.05719 -80.83151 2973 ft 172 kts 247°
2026-05-07 08:34 35.05740 -80.84661 2971 ft 191 kts 278°
2026-05-07 08:35 35.06269 -80.86178 2976 ft 195 kts 284°
2026-05-07 08:35 35.06811 -80.87657 2981 ft 185 kts 284°
2026-05-07 08:35 35.07597 -80.88938 2971 ft 192 kts 298°
2026-05-07 08:35 35.08598 -80.90019 2986 ft 189 kts 304°
2026-05-07 08:36 35.09552 -80.91051 2822 ft 176 kts 304°
2026-05-07 08:36 35.10425 -80.91933 2639 ft 148 kts 308°
2026-05-07 08:36 35.11309 -80.92599 2449 ft 159 kts 330°
2026-05-07 08:36 35.12447 -80.92769 2264 ft 163 kts 343°
2026-05-07 08:37 35.13528 -80.92849 2039 ft 152 kts 347°
2026-05-07 08:37 35.14604 -80.92941 1827 ft 153 kts 348°
2026-05-07 08:37 35.15652 -80.93030 1639 ft 149 kts 348°
2026-05-07 08:37 35.16684 -80.93119 1470 ft 146 kts 351°
2026-05-07 08:38 35.17677 -80.93194 1314 ft 142 kts 357°
2026-05-07 08:38 35.18320 -80.93253 1113 ft 138 kts 354°
2026-05-07 08:38 35.19259 -80.93337 945 ft 134 kts 356°
2026-05-07 08:38 35.20182 -80.93427 740 ft 132 kts 357°
2026-05-07 08:39 35.21349 -80.93521 1280 ft 126 kts 356°
2026-05-07 08:39 35.21960 -80.93580 1667 ft 135 kts 350°
2026-05-07 08:39 35.22974 -80.93589 2172 ft 157 kts
2026-05-07 08:39 35.24015 -80.92865 2674 ft 189 kts 43°
2026-05-07 08:40 35.24726 -80.91481 2859 ft 207 kts 75°
2026-05-07 08:40 35.24757 -80.89677 3017 ft 221 kts 113°
2026-05-07 08:40 35.24207 -80.87960 2983 ft 214 kts 135°
2026-05-07 08:40 35.23181 -80.86694 2982 ft 206 kts 151°
2026-05-07 08:41 35.22104 -80.85573 3001 ft 204 kts 152°
2026-05-07 08:41 35.21009 -80.84461 3012 ft 201 kts 152°
2026-05-07 08:41 35.19903 -80.83433 3008 ft 193 kts 165°
2026-05-07 08:41 35.18645 -80.83151 3019 ft 181 kts 189°
2026-05-07 08:42 35.17418 -80.83212 2986 ft 175 kts 193°
2026-05-07 08:42 35.16169 -80.83291 3017 ft 183 kts 191°
2026-05-07 08:42 35.14904 -80.83389 2961 ft 181 kts 192°
2026-05-07 08:42 35.13692 -80.83642 2864 ft 174 kts 207°
2026-05-07 08:43 35.12795 -80.84527 2500 ft 170 kts 234°
2026-05-07 08:43 35.12125 -80.85776 2276 ft 173 kts 235°
2026-05-07 08:43 35.11461 -80.86988 2099 ft 168 kts 234°
2026-05-07 08:43 35.10817 -80.88159 1959 ft 164 kts 235°
2026-05-07 08:44 35.10223 -80.89326 1785 ft 164 kts 245°
2026-05-07 08:44 35.10110 -80.90739 1652 ft 174 kts 275°
2026-05-07 08:44 35.10721 -80.92039 1563 ft 192 kts 311°
2026-05-07 08:44 35.12009 -80.92732 1592 ft 207 kts 349°
2026-05-07 08:45 35.13402 -80.92846 1584 ft 201 kts 347°
2026-05-07 08:45 35.14703 -80.92947 1613 ft 173 kts 348°
2026-05-07 08:45 35.15811 -80.93031 1637 ft 148 kts 347°
2026-05-07 08:45 35.16819 -80.93126 1417 ft 142 kts 354°
2026-05-07 08:46 35.17821 -80.93209 1236 ft 145 kts 355°
2026-05-07 08:46 35.18789 -80.93294 1004 ft 135 kts 355°
2026-05-07 08:46 35.19713 -80.93376 831 ft 131 kts 356°
2026-05-07 08:46 35.20597 -80.93457 737 ft 115 kts 356°
2026-05-07 08:47 35.21260 -80.93512 734 ft 77 kts 356°
2026-05-07 08:47 35.21691 -80.93553 735 ft 47 kts 355°
2026-05-07 08:47 35.21976 -80.93578 737 ft 32 kts 356°
2026-05-07 08:47 35.22102 -80.93653 735 ft 14 kts 327°
2026-05-07 08:48 35.22169 -80.93714 734 ft 7 kts 304°
2026-05-07 08:48 35.22159 -80.93727 733 ft 3 kts 205°
2026-05-07 08:48 35.22110 -80.93723 733 ft 11 kts 175°
2026-05-07 08:48 35.22013 -80.93715 733 ft 13 kts 175°
2026-05-07 08:49 35.21948 -80.93746 733 ft 10 kts 231°
2026-05-07 08:49 35.21903 -80.93812 731 ft 10 kts 228°
2026-05-07 08:49 35.21857 -80.93875 732 ft 10 kts 229°
2026-05-07 08:49 35.21849 -80.93885 732 ft 1 kts 226°
2026-05-07 08:50 35.21836 -80.93902 732 ft 5 kts 226°
2026-05-07 08:50 35.21799 -80.93953 731 ft 10 kts 230°
2026-05-07 08:50 35.21754 -80.94015 731 ft 10 kts 227°
2026-05-07 08:50 35.21710 -80.94075 731 ft 9 kts 228°
2026-05-07 08:51 35.21672 -80.94128 732 ft 8 kts 229°
2026-05-07 08:51 35.21635 -80.94181 732 ft 8 kts 234°
2026-05-07 08:51 35.21629 -80.94244 732 ft 8 kts 277°
2026-05-07 08:51 35.21638 -80.94328 732 ft 11 kts 277°
2026-05-07 08:52 35.21689 -80.94373 732 ft 10 kts 355°
2026-05-07 08:52 35.21760 -80.94380 732 ft 10 kts 356°
2026-05-07 08:52 35.21837 -80.94385 732 ft 12 kts 355°
2026-05-07 08:52 35.21925 -80.94393 731 ft 12 kts 356°
2026-05-07 08:53 35.21971 -80.94416 732 ft 4 kts 296°
2026-05-07 08:53 35.21982 -80.94442 731 ft 3 kts 296°
2026-05-07 08:53 35.21985 -80.94451 732 ft 0 kts 296°